EXS26GT EGGP-LPMA

Flight info

Callsign EXS26GT
Flight time 3h 26m
Altitude 32000
Route WAL L10 PENIL M144 BAGSO DCT CML DCT KOMAG DCT OMOKO T16 EKROL T16 NAVIX DCT KICAS
Aircraft B738/M-SDE2E3FGHIRWXY/LB1

Departure

Time 2026-05-04 14:44
Airport Liverpool John Lennon Airport (EGGP)

Arrival

Time 2026-05-04 18:10
Airport Cristiano Ronaldo International Airport (LPMA)
Time Latitude Longitude Altitude Speed Heading
2026-05-04 14:14 53.33545 -2.86087 84 ft 0 kts 175°
2026-05-04 14:36 53.33547 -2.86087 84 ft 2 kts 175°
2026-05-04 14:36 53.33569 -2.86090 89 ft 2 kts 174°
2026-05-04 14:36 53.33588 -2.86097 88 ft 4 kts 114°
2026-05-04 14:37 53.33589 -2.86134 87 ft 4 kts 85°
2026-05-04 14:37 53.33588 -2.86155 85 ft 0 kts 85°
2026-05-04 14:39 53.33588 -2.86150 84 ft 2 kts 84°
2026-05-04 14:40 53.33562 -2.85937 85 ft 13 kts 169°
2026-05-04 14:40 53.33492 -2.85878 85 ft 12 kts 108°
2026-05-04 14:40 53.33495 -2.85735 85 ft 13 kts 86°
2026-05-04 14:40 53.33503 -2.85541 83 ft 21 kts 85°
2026-05-04 14:41 53.33516 -2.85273 83 ft 24 kts 85°
2026-05-04 14:41 53.33526 -2.85004 88 ft 23 kts 84°
2026-05-04 14:41 53.33550 -2.84492 77 ft 21 kts 86°
2026-05-04 14:42 53.33576 -2.84010 71 ft 20 kts 84°
2026-05-04 14:42 53.33585 -2.83779 70 ft 20 kts 87°
2026-05-04 14:42 53.33594 -2.83556 69 ft 19 kts 86°
2026-05-04 14:43 53.33581 -2.83346 63 ft 18 kts 125°
2026-05-04 14:43 53.33479 -2.83289 70 ft 6 kts 174°
2026-05-04 14:43 53.33443 -2.83311 77 ft 6 kts 243°
2026-05-04 14:43 53.33437 -2.83380 83 ft 7 kts 264°
2026-05-04 14:44 53.33415 -2.83838 81 ft 78 kts 265°
2026-05-04 14:44 53.33356 -2.85152 78 ft 146 kts 266°
2026-05-04 14:44 53.33228 -2.87096 365 ft 181 kts 264°
2026-05-04 14:44 53.33078 -2.89265 1195 ft 195 kts 265°
2026-05-04 14:45 53.33015 -2.91681 1519 ft 223 kts 280°
2026-05-04 14:45 53.33607 -2.94181 1973 ft 234 kts 298°
2026-05-04 14:45 53.34337 -2.96617 2618 ft 239 kts 296°
2026-05-04 14:45 53.35097 -2.99232 2972 ft 256 kts 296°
2026-05-04 14:46 53.35886 -3.01951 3651 ft 261 kts 296°
2026-05-04 14:46 53.36681 -3.04695 4452 ft 263 kts 296°
2026-05-04 14:46 53.37483 -3.07460 5281 ft 265 kts 296°
2026-05-04 14:46 53.38292 -3.10256 6077 ft 267 kts 296°
2026-05-04 14:47 53.38830 -3.12114 6595 ft 269 kts 296°
2026-05-04 14:47 53.39717 -3.14883 7312 ft 272 kts 303°
2026-05-04 14:47 53.40802 -3.17498 8063 ft 274 kts 306°
2026-05-04 14:47 53.41933 -3.20073 8833 ft 276 kts 306°
2026-05-04 14:48 53.43085 -3.22692 9514 ft 281 kts 306°
2026-05-04 14:48 53.44242 -3.25346 10261 ft 282 kts 305°
2026-05-04 14:48 53.45420 -3.28070 10671 ft 296 kts 305°
2026-05-04 14:48 53.46647 -3.30933 11048 ft 311 kts 305°
2026-05-04 14:49 53.47951 -3.33990 11234 ft 331 kts 305°
2026-05-04 14:49 53.49320 -3.37214 11604 ft 344 kts 305°
2026-05-04 14:49 53.50716 -3.40508 12217 ft 349 kts 305°
2026-05-04 14:49 53.52128 -3.43850 12911 ft 352 kts 305°
2026-05-04 14:50 53.53550 -3.47222 13559 ft 356 kts 304°
2026-05-04 14:50 53.54988 -3.50636 14168 ft 360 kts 304°
2026-05-04 14:50 53.56435 -3.54076 14772 ft 362 kts 305°
2026-05-04 14:50 53.57883 -3.57521 15328 ft 367 kts 305°
2026-05-04 14:51 53.59378 -3.61086 15908 ft 370 kts 305°
2026-05-04 14:51 53.60722 -3.64799 16475 ft 374 kts 295°
2026-05-04 14:51 53.61590 -3.68885 17014 ft 378 kts 284°
2026-05-04 14:51 53.61996 -3.73277 17578 ft 382 kts 274°
2026-05-04 14:52 53.62167 -3.77815 18145 ft 385 kts 273°
2026-05-04 14:52 53.62316 -3.82351 18622 ft 390 kts 274°
2026-05-04 14:52 53.62486 -3.86940 19053 ft 395 kts 274°
2026-05-04 14:52 53.62672 -3.91519 19488 ft 399 kts 274°
2026-05-04 14:53 53.62867 -3.96189 19995 ft 401 kts 274°
2026-05-04 14:53 53.63058 -4.00900 20501 ft 404 kts 274°
2026-05-04 14:53 53.63244 -4.05638 20940 ft 408 kts 274°
2026-05-04 14:53 53.63430 -4.10428 21375 ft 412 kts 274°
2026-05-04 14:54 53.63613 -4.15252 21833 ft 415 kts 274°
2026-05-04 14:54 53.63796 -4.20121 22283 ft 417 kts 275°
2026-05-04 14:54 53.63991 -4.25080 22724 ft 421 kts 275°
2026-05-04 14:54 53.64161 -4.29964 23134 ft 425 kts 275°
2026-05-04 14:55 53.64338 -4.34951 23533 ft 428 kts 275°
2026-05-04 14:55 53.64517 -4.39978 23885 ft 431 kts 275°
2026-05-04 14:55 53.64695 -4.45039 24243 ft 434 kts 275°
2026-05-04 14:55 53.64873 -4.50130 24604 ft 436 kts 275°
2026-05-04 14:56 53.65048 -4.55244 24948 ft 439 kts 275°
2026-05-04 14:56 53.65224 -4.60399 25287 ft 441 kts 275°
2026-05-04 14:56 53.65397 -4.65564 25659 ft 443 kts 275°
2026-05-04 14:56 53.65570 -4.70752 26039 ft 444 kts 275°
2026-05-04 14:57 53.65741 -4.75944 26382 ft 446 kts 275°
2026-05-04 14:57 53.65911 -4.81182 26696 ft 448 kts 275°
2026-05-04 14:57 53.66081 -4.86450 27001 ft 451 kts 275°
2026-05-04 14:57 53.66256 -4.91739 27318 ft 453 kts 275°
2026-05-04 14:58 53.66432 -4.97053 27625 ft 455 kts 275°
2026-05-04 14:58 53.66608 -5.02396 27928 ft 457 kts 275°
2026-05-04 14:58 53.66782 -5.07748 28232 ft 459 kts 275°
2026-05-04 14:58 53.66953 -5.13143 28592 ft 460 kts 275°
2026-05-04 14:59 53.67117 -5.18517 29045 ft 458 kts 275°
2026-05-04 14:59 53.67272 -5.23855 29508 ft 455 kts 275°
2026-05-04 14:59 53.67572 -5.34460 30402 ft 451 kts 275°
2026-05-04 15:00 53.67721 -5.39752 30686 ft 452 kts 275°
2026-05-04 15:00 53.67737 -5.45066 30910 ft 456 kts 265°
2026-05-04 15:00 53.66925 -5.50247 31165 ft 461 kts 246°
2026-05-04 15:01 53.63034 -5.58698 31881 ft 458 kts 224°
2026-05-04 15:01 53.60748 -5.62415 32106 ft 459 kts 224°
2026-05-04 15:01 53.56108 -5.69972 32085 ft 466 kts 224°
2026-05-04 15:02 53.51510 -5.77572 32074 ft 461 kts 224°
2026-05-04 15:02 53.46964 -5.85123 32081 ft 458 kts 224°
2026-05-04 15:03 53.42465 -5.92585 32080 ft 457 kts 224°
2026-05-04 15:03 53.37945 -6.00057 32082 ft 457 kts 224°
2026-05-04 15:04 53.33405 -6.07535 32083 ft 458 kts 224°
2026-05-04 15:04 53.28847 -6.15018 32084 ft 460 kts 224°
2026-05-04 15:05 53.24267 -6.22512 32105 ft 462 kts 224°
2026-05-04 15:05 53.19665 -6.30020 32100 ft 464 kts 224°
2026-05-04 15:06 53.15150 -6.37363 32097 ft 465 kts 224°
2026-05-04 15:07 53.08185 -6.48645 32094 ft 466 kts 224°
2026-05-04 15:07 53.03534 -6.56149 32091 ft 466 kts 223°
2026-05-04 15:08 52.98907 -6.63590 32069 ft 467 kts 223°
2026-05-04 15:08 52.94269 -6.71026 32072 ft 467 kts 223°
2026-05-04 15:09 52.89599 -6.78491 32069 ft 467 kts 223°
2026-05-04 15:09 52.84919 -6.85947 32067 ft 467 kts 223°
2026-05-04 15:10 52.77893 -6.97097 32063 ft 467 kts 222°
2026-05-04 15:11 52.70842 -7.08234 32063 ft 468 kts 223°
2026-05-04 15:11 52.66128 -7.15651 32062 ft 469 kts 223°
2026-05-04 15:12 52.61405 -7.23059 32059 ft 469 kts 223°
2026-05-04 15:12 52.56669 -7.30465 32060 ft 470 kts 223°
2026-05-04 15:13 52.51922 -7.37863 32067 ft 471 kts 222°
2026-05-04 15:13 52.47193 -7.45315 32055 ft 472 kts 220°
2026-05-04 15:14 52.42393 -7.52659 32056 ft 473 kts 223°
2026-05-04 15:14 52.37675 -7.60186 32060 ft 475 kts 223°
2026-05-04 15:15 52.32906 -7.67821 32173 ft 485 kts 223°
2026-05-04 15:15 52.30478 -7.71682 32287 ft 489 kts 223°
2026-05-04 15:15 52.28036 -7.75550 32508 ft 490 kts 223°
2026-05-04 15:16 52.23143 -7.83266 33067 ft 490 kts 222°
2026-05-04 15:16 52.20690 -7.87121 33312 ft 490 kts 222°
2026-05-04 15:16 52.15801 -7.94787 34024 ft 484 kts 222°
2026-05-04 15:17 52.13411 -7.98526 34314 ft 482 kts 222°
2026-05-04 15:17 52.08571 -8.06081 34735 ft 482 kts 222°
2026-05-04 15:17 52.06154 -8.09845 34978 ft 480 kts 222°
2026-05-04 15:18 52.03747 -8.13588 35226 ft 479 kts 222°
2026-05-04 15:18 52.01343 -8.17319 35485 ft 477 kts 222°
2026-05-04 15:18 51.98946 -8.21034 35715 ft 476 kts 222°
2026-05-04 15:19 51.94132 -8.28478 35934 ft 479 kts 222°
2026-05-04 15:19 51.91720 -8.32198 36060 ft 479 kts 222°
2026-05-04 15:19 51.86882 -8.39645 36063 ft 479 kts 222°
2026-05-04 15:20 51.82068 -8.47033 36092 ft 475 kts 222°
2026-05-04 15:20 51.77284 -8.54353 36103 ft 472 kts 222°
2026-05-04 15:21 51.72519 -8.61609 36109 ft 471 kts 221°
2026-05-04 15:22 51.64815 -8.71571 36096 ft 478 kts 216°
2026-05-04 15:22 51.56851 -8.81393 36081 ft 484 kts 216°
2026-05-04 15:23 51.51520 -8.88047 36074 ft 486 kts 217°
2026-05-04 15:23 51.46223 -8.94678 36070 ft 478 kts 217°
2026-05-04 15:24 51.35801 -9.07670 36076 ft 476 kts 216°
2026-05-04 15:25 51.30568 -9.14159 36066 ft 476 kts 216°
2026-05-04 15:26 51.22702 -9.23875 36075 ft 477 kts 216°
2026-05-04 15:26 51.14807 -9.33586 36081 ft 479 kts 217°
2026-05-04 15:27 51.06864 -9.43312 36080 ft 481 kts 216°
2026-05-04 15:28 50.98893 -9.53030 36067 ft 482 kts 216°
2026-05-04 15:29 50.90899 -9.62732 36084 ft 483 kts 217°
2026-05-04 15:30 50.72208 -9.85251 36081 ft 482 kts 216°
2026-05-04 15:31 50.64207 -9.94819 36079 ft 481 kts 216°
2026-05-04 15:32 50.50897 -10.10643 36081 ft 479 kts 216°
2026-05-04 15:34 50.37637 -10.26296 36071 ft 478 kts 216°
2026-05-04 15:34 50.29661 -10.35657 36080 ft 478 kts 216°
2026-05-04 15:35 50.22531 -10.43991 36085 ft 479 kts 216°
2026-05-04 15:36 50.14514 -10.53324 36097 ft 480 kts 216°
2026-05-04 15:36 50.09150 -10.59546 36067 ft 481 kts 216°
2026-05-04 15:37 50.03782 -10.65756 36084 ft 481 kts 216°
2026-05-04 15:37 49.98414 -10.71947 36086 ft 481 kts 216°
2026-05-04 15:38 49.93036 -10.78132 36087 ft 481 kts 216°
2026-05-04 15:38 49.87651 -10.84308 36094 ft 481 kts 216°
2026-05-04 15:39 49.82264 -10.90469 36083 ft 481 kts 216°
2026-05-04 15:40 49.74187 -10.99673 36082 ft 480 kts 216°
2026-05-04 15:40 49.68806 -11.05783 36094 ft 480 kts 216°
2026-05-04 15:41 49.63460 -11.11837 36102 ft 480 kts 216°
2026-05-04 15:41 49.58075 -11.17918 36097 ft 480 kts 216°
2026-05-04 15:42 49.52682 -11.23991 36088 ft 480 kts 216°
2026-05-04 15:42 49.47290 -11.30046 36081 ft 479 kts 216°
2026-05-04 15:43 49.41905 -11.36076 36094 ft 479 kts 216°
2026-05-04 15:43 49.36511 -11.42099 36099 ft 479 kts 216°
2026-05-04 15:44 49.31115 -11.48108 36099 ft 480 kts 216°
2026-05-04 15:44 49.25711 -11.54111 36093 ft 480 kts 216°
2026-05-04 15:45 49.20308 -11.60095 36075 ft 480 kts 216°
2026-05-04 15:45 49.14900 -11.66067 36113 ft 479 kts 216°
2026-05-04 15:46 49.09489 -11.72027 36095 ft 480 kts 216°
2026-05-04 15:46 49.04064 -11.77987 36118 ft 481 kts 216°
2026-05-04 15:47 48.98619 -11.83952 36093 ft 482 kts 216°
2026-05-04 15:47 48.93173 -11.89903 36102 ft 482 kts 216°
2026-05-04 15:48 48.87732 -11.95832 36113 ft 481 kts 216°
2026-05-04 15:48 48.78954 -12.03014 36115 ft 479 kts 199°
2026-05-04 15:49 48.72671 -12.06421 36100 ft 479 kts 199°
2026-05-04 15:49 48.66399 -12.09828 36133 ft 480 kts 199°
2026-05-04 15:50 48.60118 -12.13297 36109 ft 481 kts 200°
2026-05-04 15:50 48.53838 -12.16791 36096 ft 481 kts 200°
2026-05-04 15:51 48.47565 -12.20276 36095 ft 480 kts 200°
2026-05-04 15:51 48.41304 -12.23744 36104 ft 479 kts 200°
2026-05-04 15:52 48.35044 -12.27200 36100 ft 479 kts 200°
2026-05-04 15:52 48.28790 -12.30643 36106 ft 479 kts 200°
2026-05-04 15:53 48.22541 -12.34074 36103 ft 478 kts 200°
2026-05-04 15:53 48.16288 -12.37498 36127 ft 479 kts 200°
2026-05-04 15:54 48.09988 -12.40938 36093 ft 483 kts 200°
2026-05-04 15:54 48.03678 -12.44377 36086 ft 482 kts 200°
2026-05-04 15:55 47.97382 -12.47798 36101 ft 481 kts 200°
2026-05-04 15:55 47.91136 -12.51184 36109 ft 481 kts 200°
2026-05-04 15:56 47.84853 -12.54580 36097 ft 480 kts 200°
2026-05-04 15:56 47.78572 -12.57967 36099 ft 480 kts 200°
2026-05-04 15:57 47.72303 -12.61338 36110 ft 479 kts 200°
2026-05-04 15:57 47.66032 -12.64702 36103 ft 479 kts 200°
2026-05-04 15:58 47.59754 -12.68061 36080 ft 479 kts 200°
2026-05-04 15:58 47.53483 -12.71408 36096 ft 479 kts 200°
2026-05-04 15:59 47.47213 -12.74745 36107 ft 479 kts 200°
2026-05-04 15:59 47.40936 -12.78079 36096 ft 479 kts 200°
2026-05-04 16:00 47.34655 -12.81405 36098 ft 480 kts 200°
2026-05-04 16:00 47.28375 -12.84723 36105 ft 480 kts 200°
2026-05-04 16:01 47.22077 -12.88042 36108 ft 482 kts 200°
2026-05-04 16:01 47.15761 -12.91362 36095 ft 482 kts 200°
2026-05-04 16:02 47.09442 -12.94674 36102 ft 482 kts 200°
2026-05-04 16:03 47.00007 -12.99606 36095 ft 482 kts 200°
2026-05-04 16:03 46.93692 -13.02896 36097 ft 481 kts 200°
2026-05-04 16:04 46.87387 -13.06173 36102 ft 481 kts 200°
2026-05-04 16:04 46.77946 -13.11064 36102 ft 480 kts 200°
2026-05-04 16:05 46.71654 -13.14314 36098 ft 479 kts 200°
2026-05-04 16:06 46.62234 -13.19164 36107 ft 478 kts 200°
2026-05-04 16:07 46.49662 -13.25610 36111 ft 479 kts 200°
2026-05-04 16:08 46.37082 -13.32028 36110 ft 480 kts 200°
2026-05-04 16:09 46.21349 -13.40010 36109 ft 479 kts 200°
2026-05-04 16:10 46.08776 -13.46354 36119 ft 478 kts 200°
2026-05-04 16:11 45.96211 -13.52664 36115 ft 478 kts 200°
2026-05-04 16:12 45.77376 -13.62066 36122 ft 478 kts 200°
2026-05-04 16:13 45.64805 -13.68304 36124 ft 479 kts 200°
2026-05-04 16:14 45.52205 -13.74526 36142 ft 479 kts 201°
2026-05-04 16:16 45.36499 -13.82241 36139 ft 479 kts 201°
2026-05-04 16:17 45.20755 -13.89929 36135 ft 478 kts 201°
2026-05-04 16:18 45.08173 -13.96042 36137 ft 477 kts 201°
2026-05-04 16:19 44.92581 -14.03963 36150 ft 475 kts 204°
2026-05-04 16:20 44.78232 -14.12064 36157 ft 475 kts 204°
2026-05-04 16:22 44.62885 -14.20520 36167 ft 475 kts 204°
2026-05-04 16:23 44.44399 -14.30637 36174 ft 476 kts 204°
2026-05-04 16:25 44.25877 -14.40705 36168 ft 476 kts 204°
2026-05-04 16:26 44.04271 -14.52365 36161 ft 475 kts 205°
2026-05-04 16:28 43.88873 -14.60618 36172 ft 473 kts 205°
2026-05-04 16:29 43.67396 -14.72055 36184 ft 474 kts 205°
2026-05-04 16:31 43.52021 -14.80188 36188 ft 474 kts 205°
2026-05-04 16:32 43.33563 -14.89893 36184 ft 473 kts 205°
2026-05-04 16:33 43.21295 -14.96309 36193 ft 470 kts 207°
2026-05-04 16:34 43.12204 -15.01217 36191 ft 468 kts 204°
2026-05-04 16:35 42.93967 -15.10488 36189 ft 464 kts 206°
2026-05-04 16:36 42.84974 -15.15142 36196 ft 462 kts 206°
2026-05-04 16:37 42.75959 -15.19780 36199 ft 461 kts 206°
2026-05-04 16:38 42.63970 -15.25926 36198 ft 460 kts 206°
2026-05-04 16:39 42.49029 -15.33549 36196 ft 458 kts 206°
2026-05-04 16:40 42.37106 -15.39605 36192 ft 457 kts 207°
2026-05-04 16:41 42.22248 -15.47117 36204 ft 456 kts 207°
2026-05-04 16:43 42.07428 -15.54575 36206 ft 454 kts 207°
2026-05-04 16:43 41.98415 -15.58583 36199 ft 463 kts 194°
2026-05-04 16:45 41.79050 -15.60610 36207 ft 466 kts 191°
2026-05-04 16:46 41.62902 -15.62362 36206 ft 465 kts 191°
2026-05-04 16:47 41.49989 -15.63770 36203 ft 465 kts 191°
2026-05-04 16:48 41.37098 -15.65167 36199 ft 464 kts 191°
2026-05-04 16:49 41.24255 -15.66553 36203 ft 462 kts 191°
2026-05-04 16:50 41.11442 -15.67931 36183 ft 461 kts 191°
2026-05-04 16:51 41.01869 -15.68957 36208 ft 459 kts 192°
2026-05-04 16:52 40.89154 -15.70315 36207 ft 457 kts 192°
2026-05-04 16:53 40.79652 -15.71326 36210 ft 456 kts 192°
2026-05-04 16:54 40.67028 -15.72666 36190 ft 454 kts 192°
2026-05-04 16:55 40.48215 -15.74653 36212 ft 452 kts 192°
2026-05-04 16:56 40.32573 -15.76296 36210 ft 451 kts 191°
2026-05-04 16:57 40.23195 -15.77278 36203 ft 450 kts 191°
2026-05-04 16:58 40.10721 -15.78579 36212 ft 449 kts 191°
2026-05-04 17:00 39.92053 -15.80517 36209 ft 448 kts 191°
2026-05-04 17:01 39.76551 -15.82119 36205 ft 446 kts 191°
2026-05-04 17:02 39.64204 -15.83389 36214 ft 444 kts 191°
2026-05-04 17:03 39.55006 -15.84333 36212 ft 444 kts 191°
2026-05-04 17:03 39.45778 -15.85277 36210 ft 443 kts 191°
2026-05-04 17:04 39.33489 -15.86531 36201 ft 442 kts 190°
2026-05-04 17:05 39.21222 -15.87778 36214 ft 442 kts 190°
2026-05-04 17:06 39.12020 -15.88710 36209 ft 442 kts 190°
2026-05-04 17:07 39.04865 -15.89433 36206 ft 441 kts 190°
2026-05-04 17:07 38.96719 -15.90255 36206 ft 441 kts 190°
2026-05-04 17:08 38.87558 -15.91177 36202 ft 440 kts 189°
2026-05-04 17:09 38.81467 -15.91788 36209 ft 439 kts 189°
2026-05-04 17:09 38.76407 -15.92295 36209 ft 439 kts 189°
2026-05-04 17:10 38.61216 -15.93814 36207 ft 437 kts 189°
2026-05-04 17:11 38.55156 -15.94418 36208 ft 437 kts 189°
2026-05-04 17:12 38.46072 -15.95322 36196 ft 436 kts 189°
2026-05-04 17:13 38.30946 -15.96821 36203 ft 436 kts 189°
2026-05-04 17:14 38.18839 -15.98017 36196 ft 436 kts 190°
2026-05-04 17:15 38.09764 -15.98910 36210 ft 436 kts 190°
2026-05-04 17:16 37.97668 -16.00117 36199 ft 432 kts 196°
2026-05-04 17:17 37.85614 -16.01241 36200 ft 437 kts 189°
2026-05-04 17:18 37.73539 -16.02405 36197 ft 434 kts 191°
2026-05-04 17:19 37.61491 -16.03627 36200 ft 435 kts 191°
2026-05-04 17:20 37.49478 -16.04791 36195 ft 434 kts 191°
2026-05-04 17:20 37.40461 -16.05661 36200 ft 433 kts 191°
2026-05-04 17:21 37.28465 -16.06816 36199 ft 432 kts 191°
2026-05-04 17:22 37.22483 -16.07391 36204 ft 431 kts 191°
2026-05-04 17:23 37.10525 -16.08538 36200 ft 431 kts 191°
2026-05-04 17:24 37.01568 -16.09395 36194 ft 430 kts 191°
2026-05-04 17:25 36.89650 -16.10532 36196 ft 430 kts 191°
2026-05-04 17:26 36.77715 -16.11666 36195 ft 430 kts 191°
2026-05-04 17:27 36.62813 -16.13078 36196 ft 430 kts 191°
2026-05-04 17:28 36.50894 -16.14203 36190 ft 429 kts 191°
2026-05-04 17:29 36.33053 -16.15881 36180 ft 428 kts 190°
2026-05-04 17:31 36.18210 -16.17271 36194 ft 428 kts 190°
2026-05-04 17:32 36.03390 -16.18653 36183 ft 426 kts 190°
2026-05-04 17:33 35.91635 -16.19746 36189 ft 424 kts 191°
2026-05-04 17:34 35.79890 -16.20835 36188 ft 422 kts 190°
2026-05-04 17:35 35.65280 -16.22185 36186 ft 420 kts 190°
2026-05-04 17:36 35.59454 -16.22723 36179 ft 419 kts 190°
2026-05-04 17:36 35.53636 -16.23258 36179 ft 419 kts 190°
2026-05-04 17:37 35.47837 -16.23900 36183 ft 417 kts 192°
2026-05-04 17:37 35.42071 -16.24724 36179 ft 417 kts 192°
2026-05-04 17:38 35.36307 -16.25555 36172 ft 417 kts 192°
2026-05-04 17:38 35.30546 -16.26362 36180 ft 417 kts 192°
2026-05-04 17:39 35.21880 -16.27553 36176 ft 417 kts 192°
2026-05-04 17:39 35.16107 -16.28343 36177 ft 418 kts 192°
2026-05-04 17:40 35.10330 -16.29132 36167 ft 418 kts 191°
2026-05-04 17:40 35.04576 -16.29916 35798 ft 413 kts 191°
2026-05-04 17:41 35.01740 -16.30299 35440 ft 407 kts 192°
2026-05-04 17:41 34.98932 -16.30680 35064 ft 404 kts 192°
2026-05-04 17:41 34.96159 -16.31057 34691 ft 401 kts 192°
2026-05-04 17:41 34.93395 -16.31433 34318 ft 398 kts 192°
2026-05-04 17:42 34.90647 -16.31807 33904 ft 396 kts 192°
2026-05-04 17:42 34.87923 -16.32178 33493 ft 393 kts 192°
2026-05-04 17:42 34.85211 -16.32546 33104 ft 390 kts 192°
2026-05-04 17:42 34.82521 -16.32911 32711 ft 388 kts 192°
2026-05-04 17:43 34.79848 -16.33274 32342 ft 385 kts 192°
2026-05-04 17:43 34.77199 -16.33633 31984 ft 382 kts 192°
2026-05-04 17:43 34.74561 -16.33990 31625 ft 380 kts 192°
2026-05-04 17:43 34.71949 -16.34343 31267 ft 378 kts 192°
2026-05-04 17:44 34.69344 -16.34696 30914 ft 375 kts 192°
2026-05-04 17:44 34.66783 -16.35042 30565 ft 373 kts 192°
2026-05-04 17:44 34.64206 -16.35391 30174 ft 372 kts 192°
2026-05-04 17:44 34.61606 -16.35742 29745 ft 370 kts 192°
2026-05-04 17:45 34.59087 -16.36082 29369 ft 367 kts 192°
2026-05-04 17:45 34.56564 -16.36421 29008 ft 364 kts 192°
2026-05-04 17:45 34.54053 -16.36759 28634 ft 361 kts 192°
2026-05-04 17:45 34.51570 -16.37093 28269 ft 358 kts 192°
2026-05-04 17:46 34.49105 -16.37425 27914 ft 355 kts 192°
2026-05-04 17:46 34.46653 -16.37755 27555 ft 353 kts 192°
2026-05-04 17:46 34.44223 -16.38082 27213 ft 350 kts 192°
2026-05-04 17:46 34.41809 -16.38406 26868 ft 348 kts 192°
2026-05-04 17:47 34.39409 -16.38729 26527 ft 346 kts 192°
2026-05-04 17:47 34.37020 -16.39050 26173 ft 344 kts 191°
2026-05-04 17:47 34.34644 -16.39369 25836 ft 342 kts 191°
2026-05-04 17:47 34.32285 -16.39685 25498 ft 341 kts 191°
2026-05-04 17:48 34.29933 -16.40001 25161 ft 339 kts 191°
2026-05-04 17:48 34.27592 -16.40314 24828 ft 338 kts 191°
2026-05-04 17:48 34.25258 -16.40627 24489 ft 337 kts 191°
2026-05-04 17:48 34.22930 -16.40939 24136 ft 336 kts 191°
2026-05-04 17:49 34.20612 -16.41249 23797 ft 336 kts 191°
2026-05-04 17:49 34.18289 -16.41560 23420 ft 335 kts 191°
2026-05-04 17:49 34.15977 -16.41868 23050 ft 334 kts 191°
2026-05-04 17:49 34.13672 -16.42176 22698 ft 332 kts 191°
2026-05-04 17:50 34.11386 -16.42481 22350 ft 330 kts 190°
2026-05-04 17:50 34.09107 -16.42784 22019 ft 328 kts 190°
2026-05-04 17:50 34.06849 -16.43085 21689 ft 326 kts 190°
2026-05-04 17:50 34.04605 -16.43384 21369 ft 324 kts 190°
2026-05-04 17:51 34.02364 -16.43682 21021 ft 322 kts 190°
2026-05-04 17:51 34.00142 -16.43978 20722 ft 321 kts 190°
2026-05-04 17:51 33.97924 -16.44272 20400 ft 320 kts 189°
2026-05-04 17:51 33.95716 -16.44566 20081 ft 319 kts 189°
2026-05-04 17:52 33.93516 -16.44859 19774 ft 318 kts 189°
2026-05-04 17:52 33.91319 -16.45150 19447 ft 317 kts 189°
2026-05-04 17:52 33.89130 -16.45441 19129 ft 317 kts 189°
2026-05-04 17:52 33.86934 -16.45733 18788 ft 317 kts 189°
2026-05-04 17:53 33.84747 -16.46006 18490 ft 315 kts 188°
2026-05-04 17:53 33.82575 -16.46298 18146 ft 314 kts 189°
2026-05-04 17:53 33.80406 -16.46592 17797 ft 312 kts 190°
2026-05-04 17:53 33.78253 -16.46881 17470 ft 310 kts 189°
2026-05-04 17:54 33.76116 -16.47164 17150 ft 308 kts 188°
2026-05-04 17:54 33.74009 -16.47456 16695 ft 311 kts 188°
2026-05-04 17:54 33.71842 -16.47743 16276 ft 314 kts 188°
2026-05-04 17:54 33.69670 -16.48029 15900 ft 314 kts 188°
2026-05-04 17:55 33.67500 -16.48320 15574 ft 312 kts 188°
2026-05-04 17:55 33.65345 -16.48599 15258 ft 311 kts 188°
2026-05-04 17:55 33.63201 -16.48887 14944 ft 309 kts 188°
2026-05-04 17:55 33.61761 -16.49080 14736 ft 309 kts 187°
2026-05-04 17:56 33.59633 -16.49356 14419 ft 307 kts 187°
2026-05-04 17:56 33.57512 -16.49637 14113 ft 306 kts 188°
2026-05-04 17:56 33.55403 -16.49918 13786 ft 305 kts 187°
2026-05-04 17:56 33.53301 -16.50196 13456 ft 303 kts 187°
2026-05-04 17:57 33.51212 -16.50473 13121 ft 301 kts 187°
2026-05-04 17:57 33.49131 -16.50748 12815 ft 299 kts 187°
2026-05-04 17:57 33.47092 -16.51018 12514 ft 297 kts 188°
2026-05-04 17:57 33.45016 -16.51293 12211 ft 295 kts 188°
2026-05-04 17:58 33.42981 -16.51562 11899 ft 294 kts 188°
2026-05-04 17:58 33.40981 -16.51827 11618 ft 292 kts 187°
2026-05-04 17:58 33.38959 -16.52094 11332 ft 293 kts 188°
2026-05-04 17:58 33.36936 -16.52361 11027 ft 294 kts 188°
2026-05-04 17:59 33.34898 -16.52631 10709 ft 293 kts 187°
2026-05-04 17:59 33.32880 -16.52903 10413 ft 292 kts 187°
2026-05-04 17:59 33.28860 -16.53430 9800 ft 290 kts 187°
2026-05-04 18:00 33.26863 -16.53691 9478 ft 288 kts 187°
2026-05-04 18:00 33.24876 -16.53952 9173 ft 286 kts 187°
2026-05-04 18:00 33.22900 -16.54212 8876 ft 285 kts 187°
2026-05-04 18:00 33.20937 -16.54471 8582 ft 283 kts 187°
2026-05-04 18:01 33.18986 -16.54727 8293 ft 281 kts 187°
2026-05-04 18:01 33.17049 -16.54982 7998 ft 280 kts 187°
2026-05-04 18:01 33.15116 -16.55237 7715 ft 278 kts 187°
2026-05-04 18:02 33.11287 -16.55740 7150 ft 276 kts 187°
2026-05-04 18:02 33.09381 -16.55990 6868 ft 275 kts 187°
2026-05-04 18:02 33.07487 -16.56249 6581 ft 274 kts 187°
2026-05-04 18:02 33.05601 -16.56495 6284 ft 273 kts 187°
2026-05-04 18:03 33.03719 -16.56738 5983 ft 271 kts 187°
2026-05-04 18:03 33.01843 -16.56982 5687 ft 270 kts 187°
2026-05-04 18:03 32.99980 -16.57225 5396 ft 269 kts 187°
2026-05-04 18:03 32.98121 -16.57467 5067 ft 269 kts 187°
2026-05-04 18:04 32.96263 -16.57710 4781 ft 268 kts 187°
2026-05-04 18:04 32.94415 -16.57952 4483 ft 267 kts 187°
2026-05-04 18:04 32.90812 -16.58425 4244 ft 251 kts 187°
2026-05-04 18:05 32.89118 -16.58647 4140 ft 239 kts 187°
2026-05-04 18:05 32.87505 -16.58856 3999 ft 227 kts 187°
2026-05-04 18:05 32.85987 -16.59087 3891 ft 213 kts 195°
2026-05-04 18:05 32.84740 -16.59925 3729 ft 205 kts 222°
2026-05-04 18:06 32.82708 -16.62350 3300 ft 209 kts 225°
2026-05-04 18:06 32.81690 -16.63531 3073 ft 201 kts 225°
2026-05-04 18:06 32.80713 -16.64682 2846 ft 193 kts 224°
2026-05-04 18:07 32.79785 -16.65764 2626 ft 180 kts 224°
2026-05-04 18:07 32.78938 -16.66754 2426 ft 163 kts 224°
2026-05-04 18:07 32.78174 -16.67647 2298 ft 149 kts 225°
2026-05-04 18:07 32.77445 -16.68499 2112 ft 146 kts 225°
2026-05-04 18:08 32.76721 -16.69345 1931 ft 146 kts 224°
2026-05-04 18:08 32.76038 -16.70142 1733 ft 147 kts 226°
2026-05-04 18:08 32.75294 -16.70996 1542 ft 149 kts 226°
2026-05-04 18:08 32.74557 -16.71870 1346 ft 149 kts 225°
2026-05-04 18:09 32.73077 -16.73604 947 ft 147 kts 224°
2026-05-04 18:09 32.71630 -16.75282 559 ft 149 kts 223°
2026-05-04 18:10 32.70896 -16.76162 319 ft 147 kts 221°
2026-05-04 18:10 32.70174 -16.77009 194 ft 140 kts 223°
2026-05-04 18:10 32.69599 -16.77657 175 ft 87 kts 223°
2026-05-04 18:10 32.69349 -16.77948 175 ft 16 kts 222°
2026-05-04 18:11 32.69298 -16.77941 175 ft 7 kts 126°
2026-05-04 18:11 32.69297 -16.77885 168 ft 7 kts 72°
2026-05-04 18:11 32.69313 -16.77832 168 ft 7 kts 54°
2026-05-04 18:11 32.69344 -16.77789 168 ft 7 kts 47°
2026-05-04 18:12 32.69376 -16.77748 168 ft 7 kts 46°
2026-05-04 18:12 32.69398 -16.77716 168 ft 2 kts 71°
2026-05-04 18:12 32.69391 -16.77697 168 ft 3 kts 124°
2026-05-04 18:12 32.69372 -16.77675 168 ft 3 kts 138°
2026-05-04 18:13 32.69362 -16.77665 168 ft 1 kts 138°
2026-05-04 18:13 32.69358 -16.77660 168 ft 1 kts 138°